Regional Weather Roundup
Issued by NWS

Home | Current Version | Previous Version | Text Only | Print | Product List | Glossary On
Versions: 1 2 3 4 5 6 7 8 9 10 11 12 13 14 15 16 17 18 19 20 21 22 23 24 25 26 27 28 29 30 31 32 33 34 35 36 37 38 39 40 41 42 43 44 45 46 47 48 49 50
000
ASUS46 KPQR 202110
RWROR

OREGON REGIONAL WEATHER ROUNDUP
NATIONAL WEATHER SERVICE PORTLAND OR
200 PM PDT MON OCT 20 2014

NOTE: "FAIR" INDICATES FEW OR NO CLOUDS BELOW 12,000 FEET WITH
NO SIGNIFICANT WEATHER AND/OR OBSTRUCTIONS TO VISIBILITY.

ORZ001>013-202200-
NORTHWEST OREGON


CITY           SKY/WX    TMP DP  RH WIND       PRES   REMARKS
ASTORIA        LGT RAIN  59  53  80 S10       29.75S
NEWPORT        SUNNY     63  54  72 S20G26    29.82S HAZE
PORTLAND       PTSUNNY   62  56  80 SE12      29.80F
VANCOUVER WA   PTSUNNY   63  54  72 S9        29.79F
SCAPPOOSE      PTSUNNY   63  55  75 S10       29.78S
HILLSBORO      PTSUNNY   62  55  77 S10       29.78S
AURORA         PTSUNNY   62  54  74 S16       29.80F
MCMINNVILLE    LGT RAIN  62  56  80 S9        29.79F
SALEM          CLOUDY    61  56  83 S13       29.79F
CORVALLIS      CLOUDY    61  55  82 S12       29.82S
EUGENE         LGT RAIN  59  55  87 S10       29.82S
$$

ORZ021-028-202200-
SOUTHWEST OREGON


CITY           SKY/WX    TMP DP  RH WIND       PRES   REMARKS
NORTH BEND     MOSUNNY   66  57  72 S14G24    29.82F
BROOKINGS      MOCLDY    58  55  89 S10       29.88S
ROSEBURG       MOSUNNY   62  53  72 SE10      29.83S
SEXTON SUMMIT  CLOUDY    46  43  89 SW21G30   29.86S
MEDFORD        MOSUNNY   62  52  69 NE7       29.84F
$$

ORZ009-041-202200-
COLUMBIA GORGE


CITY           SKY/WX    TMP DP  RH WIND       PRES   REMARKS
TROUTDALE      CLOUDY    61  55  81 E3        29.79F
THE DALLES     CLOUDY    59  55  87 W9        29.79F
$$

ORZ029>031-042>050-061>064-202200-
EASTERN OREGON


CITY           SKY/WX    TMP DP  RH WIND       PRES   REMARKS
REDMOND        LGT RAIN  53  43  68 N10       29.81S
BEND           LGT RAIN  54  41  62 N7        29.83R
KLAMATH FALLS  CLOUDY    52  45  77 W12       29.87S
LAKEVIEW       CLOUDY    63  36  36 SW24      29.87R
HERMISTON      PTSUNNY   70  48  45 W12       29.73S
PENDLETON      PTSUNNY   68  48  48 NW10      29.75R
JOHN DAY       PTCLDY    73  29  19 S10G20    29.78F
MEACHAM        MOSUNNY   64  43  46 VRB3      29.79R
LA GRANDE      MOSUNNY   77  30  18 SE20G26   29.71F
BAKER CITY     SUNNY     74  25  16 SE15G22   29.76F
BURNS          SUNNY     71  27  19 S21G35    29.81F
ROME             N/A     76  21  12 S18G31    29.81F
ONTARIO        MOSUNNY   70  39  32 NE3       29.79F
$$


USA.gov is the U.S. government's official web portal to all federal, state and local government web resources and services.